N5CNB Weather Reports


Display with metric or nautical units.
time (UTC)temp
F
wind
direction
speed
MPH
gust
MPH
rain 1hr
in
rain 24hr
in
rain mn
in
humidity
%
barometer
mb
20260831011514 87 86 2.0 7.0 0.00 0.00 0.00 66 1013.7
20260831010016 88 114 2.0 6.0 0.00 0.00 0.00 64 1013.7
20260831004526 88 82 0.0 7.0 0.00 0.00 0.00 63 1013.5
20260831003005 89 100 3.0 6.0 0.00 0.00 0.00 61 1013.4
20260831001509 90 134 2.0 8.0 0.00 0.00 0.00 58 1013.3
20260831000032 92 159 6.0 11.0 0.00 0.00 0.00 54 1013.4
20260830234520 93 127 3.0 12.0 0.00 0.00 0.00 54 1013.3
20260830233035 93 75 7.0 17.0 0.00 0.00 0.00 53 1013.4
20260830231508 93 152 4.0 12.0 0.00 0.00 0.00 54 1013.4
20260830230015 94 251 9.0 17.0 0.00 0.00 0.00 53 1013.3
20260830224516 94 120 2.0 14.0 0.00 0.00 0.00 48 1013.3
20260830223024 95 89 5.0 8.0 0.00 0.00 0.00 47 1013.2
20260830221530 97 103 5.0 14.0 0.00 0.00 0.00 43 1013.3
20260830220030 98 141 6.0 10.0 0.00 0.00 0.00 42 1013.5
20260830214511 96 202 3.0 7.0 0.00 0.00 0.00 44 1013.6
20260830213020 96 175 5.0 10.0 0.00 0.00 0.00 47 1013.7
20260830211524 96 118 5.0 11.0 0.00 0.00 0.00 46 1013.9
20260830210031 96 109 6.0 11.0 0.00 0.00 0.00 48 1014.1
20260830204535 96 109 4.0 12.0 0.00 0.00 0.00 44 1014.2
20260830203014 97 98 6.0 12.0 0.00 0.00 0.00 44 1014.4
20260830201520 96 230 5.0 12.0 0.00 0.00 0.00 46 1014.7
20260830200027 96 72 4.0 11.0 0.00 0.00 0.00 45 1015.0
20260830194530 96 110 1.0 9.0 0.00 0.00 0.00 48 1015.1
20260830193030 95 223 0.0 11.0 0.00 0.00 0.00 49 1015.5
20260830191519 96 225 3.0 10.0 0.00 0.00 0.00 51 1015.8
20260830190024 96 221 4.0 10.0 0.00 0.00 0.00 47 1016.0
20260830184527 95 350 0.0 7.0 0.00 0.00 0.00 51 1016.1
20260830183031 94 137 2.0 7.0 0.00 0.00 0.00 54 1016.5
20260830181532 93 112 7.0 13.0 0.00 0.00 0.00 55 1016.6
20260830180016 93 110 2.0 7.0 0.00 0.00 0.00 56 1016.9
20260830174525 93 167 5.0 11.0 0.00 0.00 0.00 58 1017.1
20260830173031 92 5 0.0 6.0 0.00 0.00 0.00 60 1017.3
20260830171532 91 91 3.0 8.0 0.00 0.00 0.00 60 1017.5
20260830170012 90 84 3.0 7.0 0.00 0.00 0.00 62 1017.7
20260830164532 90 120 2.0 6.0 0.00 0.00 0.00 66 1018.0
20260830163027 90 209 3.0 10.0 0.00 0.00 0.00 64 1018.1
20260830161529 89 110 4.0 9.0 0.00 0.00 0.00 66 1018.1
20260830160011 89 129 5.0 9.0 0.00 0.00 0.00 67 1018.1
20260830154511 89 134 1.0 5.0 0.00 0.00 0.00 68 1018.1
20260830153018 88 148 0.0 8.0 0.00 0.00 0.00 74 1018.1
20260830151526 86 148 4.0 7.0 0.00 0.00 0.00 74 1018.0
20260830150031 86 113 3.0 6.0 0.00 0.00 0.00 78 1017.8
20260830144516 85 112 2.0 5.0 0.00 0.00 0.00 80 1017.9
20260830143015 85 255 1.0 4.0 0.00 0.00 0.00 79 1018.0
20260830141534 84 102 0.0 2.0 0.00 0.00 0.00 83 1018.0
20260830140114 83 127 0.0 2.0 0.00 0.00 0.00 84 1018.0
20260830134541 81 102 0.0 0.0 0.00 0.00 0.00 88 1017.8
20260830133012 79 103 0.0 0.0 0.00 0.00 0.00 90 1017.7
20260830131517 77 63 0.0 0.0 0.00 0.00 0.00 92 1017.6
20260830130029 76 63 0.0 0.0 0.00 0.00 0.00 93 1017.4
20260830124527 74 63 0.0 0.0 0.00 0.00 0.00 92 1017.3
20260830123031 73 248 0.0 0.0 0.00 0.00 0.00 92 1017.3
20260830121515 72 248 0.0 0.0 0.00 0.00 0.00 92 1017.0
20260830120019 72 248 0.0 0.0 0.00 0.00 0.00 92 1016.7
20260830114528 72 248 0.0 0.0 0.00 0.00 0.00 92 1016.6
20260830113031 72 248 0.0 0.0 0.00 0.00 0.00 92 1016.6
20260830111534 72 248 0.0 0.0 0.00 0.00 0.00 92 1016.6
20260830110020 72 248 0.0 0.0 0.00 0.00 0.00 92 1016.6
20260830104526 72 248 0.0 0.0 0.00 0.00 0.00 91 1016.5
20260830103028 73 248 0.0 0.0 0.00 0.00 0.00 92 1016.3
20260830101530 73 248 0.0 0.0 0.00 0.01 0.00 91 1016.2
20260830100032 73 248 0.0 0.0 0.00 0.01 0.00 92 1016.2
20260830094528 73 248 0.0 0.0 0.00 0.01 0.00 92 1016.1
20260830093027 73 248 0.0 0.0 0.00 0.01 0.00 91 1016.2
20260830091530 73 248 0.0 0.0 0.00 0.01 0.00 91 1016.3
20260830090031 73 248 0.0 0.0 0.00 0.01 0.00 91 1016.3
20260830084533 73 248 0.0 0.0 0.00 0.01 0.00 91 1016.4
20260830083018 73 248 0.0 0.0 0.00 0.01 0.00 91 1016.3
20260830081540 74 248 0.0 0.0 0.00 0.01 0.00 91 1016.4
20260830080030 74 248 0.0 0.0 0.00 0.01 0.00 90 1016.5
20260830074537 74 248 0.0 0.0 0.00 0.01 0.00 90 1016.7
20260830073025 75 248 0.0 0.0 0.00 0.01 0.00 90 1016.7
20260830071524 75 248 0.0 0.0 0.00 0.01 0.00 90 1016.6
20260830070005 75 248 0.0 0.0 0.00 0.01 0.00 89 1016.6
20260830064508 76 248 0.0 0.0 0.00 0.01 0.00 88 1016.7
20260830063019 76 248 0.0 0.0 0.00 0.01 0.00 88 1016.7
20260830061524 77 248 0.0 0.0 0.00 0.01 0.00 87 1016.7
20260830060027 77 248 0.0 0.0 0.00 0.01 0.00 87 1016.5
20260830054522 78 248 0.0 0.0 0.00 0.01 0.00 86 1016.6
20260830053010 78 226 0.0 0.0 0.00 0.01 0.00 86 1016.6
20260830051521 79 233 0.0 2.0 0.00 0.01 0.00 85 1016.8
20260830050024 79 165 1.0 4.0 0.00 0.01 0.00 84 1016.8
20260830044529 79 180 1.0 4.0 0.00 0.01 0.01 84 1016.7
20260830043008 79 167 0.0 3.0 0.00 0.01 0.01 84 1016.7
20260830041517 80 158 1.0 2.0 0.00 0.01 0.01 83 1016.8
20260830040034 80 155 0.0 2.0 0.00 0.01 0.01 82 1016.7
20260830034527 81 240 0.0 3.0 0.00 0.01 0.01 81 1016.5
20260830033034 81 179 0.0 3.0 0.00 0.01 0.01 81 1016.6
20260830031513 81 184 1.0 5.0 0.00 0.01 0.01 80 1016.3
20260830030017 82 160 2.0 6.0 0.00 0.01 0.01 80 1016.3
20260830024524 82 207 1.0 3.0 0.00 0.01 0.01 79 1016.1
20260830023029 82 180 1.0 4.0 0.00 0.01 0.01 78 1015.7
20260830021535 83 155 1.0 4.0 0.00 0.01 0.01 77 1015.3
20260830020013 83 89 0.0 3.0 0.00 0.01 0.01 76 1015.3
20260830014516 84 157 0.0 3.0 0.00 0.01 0.01 74 1015.0
20260830013021 85 191 2.0 4.0 0.00 0.01 0.01 72 1014.9